Location: Sungai Lasa
(2.4500°N, 113.4500°E)
Time: 03:30:31
(UTC+00:00)

GPS 2-15 Rocket1 - Pass Details

Date: 03 February 2023
Orbit: 621 x 671 km, 19.8° (Epoch: 26 March)

Event Time Altitude Azimuth Distance (km) Brightness Sun altitude
Rises 12:21:37 0° 302° (WNW) 2,985 7.1 -25.0°
Reaches altitude 10° 12:24:09 10° 309° (NW) 2,067 6.1 -25.6°
Enters shadow 12:27:03 30° 335° (NNW) 1,173 4.5 -26.3°
